Location: ???????
(55.5931°N, 39.3286°E)
Time: 22:47:26
(UTC+00:00)

Cosmos 2221 - Pass Details

Date: 14 April 2024
Orbit: 582 x 603 km, 82.5° (Epoch: 23 May)

Event Time Altitude Azimuth Distance (km) Brightness Sun altitude
Exits shadow 00:05:21 30° 248° (WSW) 1,068 3.3 -16.7°
Maximum altitude 00:06:43 39° 290° (WNW) 894 3.2 -16.5°
Drops below altitude 10° 00:10:45 10° 0° (N) 1,937 5.8 -16.1°
Sets 00:13:05 0° 9° (N) 2,847 6.9 -15.9°
